Terminal Aerodrome Forecast
Issued by NWS

Home | Current Version | Previous Version | Text Only | Print | Product List | Glossary On
Versions: 1 2 3 4 5 6 7 8 9 10 11 12 13 14 15 16 17 18 19 20 21
000
FTUS41 KPBZ 041300 AAA
TAFZZV
TAF AMD
KZZV 041341Z 0414/0512 28005KT 3SM BR OVC015
     FM041700 29005KT 5SM BR OVC015
     FM042200 32008KT 2SM -SN BR OVC007=

USA.gov is the U.S. government's official web portal to all federal, state and local government web resources and services.